Weather observations for the past three days for
Mekoryuk, Mekoryuk Airport
Metric (Imperial)
Date Time (akdt) Wind (kph) Vis. (km) Weather Sky Cond. Temperature (ºC) Relative Humidity Wind Chill (°C) Heat Index (°C) Pressure Precipitation (cm)
Air Dwpt 6 hour altimeter (cm) sea level (mb) 1 hr 3 hr 6 hr
Max. Min.
24 20:56 NW 13 16.09 Unknown Precip OVC009 2.2 1.7 97% -1 75.39 1004.8
24 19:56 NW 17 16.09 Light Rain OVC007 2.8 2.2 96% -1 75.34 1004.3
24 18:56 N 15 16.09 Overcast OVC005 2.8 2.2 96% -1 75.29 1003.7
24 17:56 N 13 1.61 Fog/Mist OVC003 2.8 1.7 93% -0 75.26 1003.3
24 16:56 N 17 16.09 Overcast BKN003 OVC008 2.2 1.1 93% -2 75.23 1003.0
24 15:56 N 13 16.09 Overcast SCT003 OVC015 2.2 1.1 4.4 1.7 93% -1 75.23 1002.8
24 14:56 NE 11 16.09 Overcast BKN005 OVC019 3.9 1.7 86% 1 75.21 1002.4
24 13:56 E 11 12.87 Overcast OVC005 3.9 1.7 86% 1 75.16 1002.0
24 12:56 E 7 12.87 Overcast OVC005 2.8 1.1 89% 1 75.16 1001.9
24 11:56 E 11 16.09 Overcast OVC005 2.8 1.1 89% 0 75.13 1001.6
24 10:56 E 11 16.09 Unknown Precip BKN003 OVC009 2.2 1.1 93% -1 75.13 1001.5
24 09:56 E 9 16.09 Unknown Precip FEW003 OVC011 1.7 1.1 1.7 0.6 96% -1 75.13 1001.4
24 08:56 E 9 16.09 Unknown Precip OVC033 1.1 1.1 100% -1 75.11 1001.1
24 07:56 E 11 16.09 Unknown Precip BKN035 OVC047 0.6 0.6 100% -2 75.08 1000.9
24 06:56 E 9 16.09 Unknown Precip BKN019 BKN038 OVC055 0.6 0 96% -2 75.11 1001.0
24 05:56 E 11 12.87 Light Rain FEW007 SCT015 OVC055 0.6 0 96% -2 75.11 1001.2
24 04:56 E 11 8.05 Light Rain Fog/Mist FEW004 OVC041 0.6 0.6 100% -2 75.13 1001.6
24 03:56 SE 9 16.09 Unknown Precip SCT004 SCT012 OVC044 0.6 0.6 1.7 0.6 100% -2 75.16 1001.8
24 02:56 E 7 16.09 Light Rain BKN004 OVC016 0.6 0.6 100% -1 75.18 1002.1
24 01:56 SE 13 16.09 Overcast OVC050 1.1 0.6 97% -2 75.21 1002.4
24 00:56 SE 13 16.09 Unknown Precip SCT037 OVC055 1.1 0.6 97% -2 75.23 1002.7
23 23:56 SE 19 16.09 Light Rain FEW006 OVC050 1.1 0.6 97% -3 75.26 1003.1
23 22:56 SE 11 16.09 Unknown Precip OVC055 1.1 0.6 97% -2 75.26 1003.1
23 21:56 SE 15 16.09 Unknown Precip BKN004 BKN048 OVC060 1.7 1.1 2.2 1.7 96% -2 75.26 1003.3
23 20:56 S 22 16.09 Light Rain FEW004 BKN028 OVC036 1.7 1.1 96% -3 75.26 1003.3
23 19:56 S 19 16.09 Overcast BKN030 OVC042 2.2 1.1 93% -2 75.26 1003.2
23 18:56 SE 24 16.09 Overcast OVC031 2.2 1.1 93% -3 75.26 1003.2
23 17:56 SE 26 16.09 Overcast OVC004 1.7 1.1 96% -3 75.31 1003.8
23 16:56 E 33 9.66 Fog/Mist and Breezy OVC006 1.7 1.1 96% -4 75.36 1004.4
23 15:56 E 35 G 54 11.27 Overcast and Breezy OVC006 1.7 1.1 2.2 0.6 96% -4 75.44 1005.5
23 14:56 E 41 G 54 12.87 Light Rain and Breezy OVC004 1.7 0.6 93% -5 75.49 1006.1
23 13:56 E 43 G 48 4.83 Unknown Precip Fog/Mist and Windy OVC004 1.1 0.6 97% -6 75.57 1007.1
23 12:56 E 37 G 44 14.48 Light Rain and Breezy BKN004 OVC055 1.1 0.6 97% -5 75.64 1008.2
23 11:56 E 31 G 41 16.09 Overcast OVC004 1.7 0.6 93% -4 75.72 1009.1
23 10:56 E 30 14.48 Light Rain BKN004 OVC045 0.6 0 96% -5 75.74 1009.7
23 09:56 E 24 6.44 Light Snow Fog/Mist FEW025 OVC035 0.6 0 0.6 -0.6 96% -5 75.79 1010.4
23 08:56 E 20 2.82 Light Snow Fog/Mist OVC014 0 0 100% -5 75.87 1011.2
23 07:56 SE 24 2.41 Light Snow Fog/Mist BKN005 OVC016 -0.6 -0.6 100% -6 75.9 1011.6
23 06:56 SE 19 16.09 Overcast BKN005 BKN029 OVC038 -0.6 -0.6 100% -5 75.95 1012.1
23 05:56 SE 20 16.09 Overcast OVC005 -0.6 -0.6 100% -6 76 1012.8
23 04:56 SE 13 16.09 Overcast OVC005 0 -0.6 96% -4 76 1012.9
23 03:56 SE 9 16.09 Overcast OVC005 0 -0.6 1.1 0 96% -3 76 1013.1
23 02:56 S 6 16.09 Overcast OVC005 0.6 0 96% 76.05 1013.6
23 01:56 S 11 11.27 Overcast OVC003 0 0 100% -3 76.07 1013.9
23 00:56 SW 9 8.05 Fog/Mist OVC005 0 0 100% -3 76.05 1013.7
22 23:56 W 11 0.40 Unknown Precip Fog OVC003 0.6 0 96% -2 76.02 1013.3
22 22:56 W 13 0.40 Unknown Precip Fog OVC003 0.6 0.6 100% -3 76 1013.0
22 21:56 W 13 0.40 Unknown Precip Fog OVC003 1.1 0.6 2.8 1.1 97% -2 75.95 1012.4
22 20:56 W 15 12.87 Mostly Cloudy SCT005 BKN011 2.8 1.1 89% -1 75.92 1011.9
22 19:56 W 17 16.09 Overcast OVC005 2.2 1.1 93% -2 75.87 1011.3
22 18:56 W 17 16.09 Overcast OVC005 2.8 1.7 93% -1 75.84 1011.0
22 17:56 W 11 4.83 Unknown Precip Fog/Mist OVC005 2.8 1.7 93% 0 75.79 1010.3
22 16:52 W 13 0.40 Fog OVC003 2.8 1.7 93% -0 75.74 1009.5
22 15:56 W 13 1.21 Fog/Mist OVC003 2.2 1.1 4.4 1.7 93% -1 75.67 1008.7
22 14:56 W 13 0.80 Fog OVC003 2.8 1.7 93% -0 75.62 1007.8
22 13:56 W 15 0.80 Fog OVC003 3.9 1.7 86% 1 75.51 1006.6
22 12:56 NW 15 0.40 Light Rain Fog OVC003 2.8 1.7 93% -1 75.44 1005.7
22 11:56 W 13 0.40 Fog OVC001 2.8 1.7 93% -0 75.39 1004.8
22 10:56 W 13 16.09 Overcast SCT001 OVC016 2.8 1.7 93% -0 75.31 1004.0
22 09:56 W 13 0.40 Unknown Precip Fog BKN003 OVC016 1.7 1.1 1.7 0.6 96% -2 75.26 1003.3
22 08:56 NW 9 0.40 Unknown Precip Fog OVC003 1.7 1.1 96% -1 75.21 1002.5
22 07:56 N 6 0.40 Fog OVC003 1.1 0.6 97% 75.13 1001.5
22 06:56 Calm 0.40 Unknown Precip Fog OVC003 0.6 0.6 100% 75.08 1000.9
22 05:56 N 6 1.21 Light Rain Fog/Mist OVC003 0.6 0.6 100% 75.06 1000.5
22 04:56 Calm 12.87 Overcast OVC003 0.6 0.6 100% 75.03 1000.0
22 03:56 E 7 12.87 Overcast OVC007 0.6 0.6 1.1 0.6 100% -1 75.01 999.7
22 02:56 E 13 3.22 Light Rain Fog/Mist OVC003 0.6 0.6 100% -3 74.98 999.4
22 01:56 E 13 4.83 Light Rain Fog/Mist OVC003 0.6 0.6 100% -3 74.96 999.0
22 00:56 E 13 4.83 Light Rain Fog/Mist OVC003 0.6 0.6 100% -3 74.96 998.9
21 23:56 E 17 4.83 Light Rain Fog/Mist OVC003 0.6 0.6 100% -4 74.93 998.6
21 22:56 E 13 8.05 Fog/Mist OVC005 1.1 0.6 97% -2 74.9 0.0
Date Time (akdt) Wind (kph) Vis. (km) Weather Sky Cond. Air Dwpt Max. Min. Relative Humidity Wind Chill (°C) Heat Index (°C) altimeter (cm) sea level (mb) 1 hr 3 hr 6 hr
6 hour
Temperature (ºC) Pressure Precipitation (cm)